Location: Wiesbaden
(50.0830°N, 8.2500°E)
Time: 15:30:22
(UTC+02:00)

ISS - Visible Passes

Search period start: 20 July 2025 00:00
Search period end: 30 July 2025 00:00
Orbit: 415 x 418 km, 51.6° (Epoch: 20 July)

Date Brightness Start Highest point End Pass type
(mag) Time Alt. Az. Time Alt. Az. Time Alt. Az.
20 Jul -3.7 22:45:05 10° WNW 22:48:24 61° SSW 22:50:53 16° SE visible
21 Jul -1.4 00:22:40 10° WSW 00:23:45 14° WSW 00:23:45 14° WSW visible
21 Jul -2.2 23:33:50 10° W 23:36:28 22° SW 23:36:59 21° SSW visible
22 Jul -2.7 22:45:13 10° W 22:48:14 32° SSW 22:50:14 17° SSE visible
23 Jul -3.2 21:56:43 10° WNW 21:59:57 45° SSW 22:03:10 10° SE visible
23 Jul -1.2 23:35:45 10° SW 23:36:02 10° SW 23:36:19 10° SW visible
24 Jul -1.6 22:45:46 10° W 22:47:52 16° SW 22:49:45 11° S visible
25 Jul -2.0 21:56:55 10° W 21:59:38 23° SW 22:02:20 10° SSE visible
27 Jul -1.1 21:58:13 10° WSW 21:59:05 11° SW 21:59:57 10° SSW visible
